Wind_Speed
22 22 22 23 23 24 23 23 23 21 21 20 20 20 19 19 19 19 19 19 19 19 19 19 20 20 21 22 22 22 23 24 24 24 24 24 23 23 23 23 23 23 21
20 20 21 21 22 21 21 21 20 20 20 19 19 18 18 18 18 17 17 17 17 17 18 18 18 18 18 18 19 20 20 20 21 21 21 22 21 21 21 20 20 19 19
19 19 19 19 20 19 19 19 19 19 19 18 17 17 17 17 17 16 16 15 15 15 15 16 16 17 16 16 16 16 17 17 17 18 18 19 19 18 17 16 15 15 16
17 17 18 18 17 17 17 18 18 17 17 16 17 16 15 15 15 14 13 13 13 12 13 13 14 14 14 14 14 14 15 15 15 16 17 17 16 16 15 14 13 13 14
16 16 15 15 15 15 15 16 16 16 15 14 14 13 13 12 12 12 11 11 11 10 10 10 11 11 10 10 11 11 12 12 12 13 13 14 14 14 14 13 12 12 12
15 14 14 13 13 14 14 15 15 14 13 13 12 11 11 10 9 9 9 9 8 8 9 9 9 8 8 8 8 8 9 10 10 10 11 11 11 12 11 11 11 11 11
13 12 12 12 12 12 13 13 13 12 11 10 10 9 8 7 6 6 6 6 5 5 6 6 5 5 5 5 5 6 6 7 9 9 9 9 9 10 10 10 10 10 10
11 10 11 10 10 11 11 12 11 11 10 9 8 6 6 5 4 3 4 4 4 3 4 3 2 2 2 2 3 4 4 5 7 7 7 8 8 8 8 8 8 9 10
9 9 9 9 9 9 10 10 10 10 9 8 7 6 6 5 4 4 4 4 4 4 3 2 1 1 1 1 2 3 4 4 5 5 5 5 6 7 7 7 7 8 8
7 7 7 7 7 7 8 9 9 9 8 7 7 6 6 5 5 4 4 4 4 3 3 2 1 1 1 1 2 3 3 4 4 4 3 3 4 4 5 5 5 6 6
6 6 6 6 6 6 7 7 8 8 8 8 8 7 6 5 5 5 5 4 4 4 4 3 3 3 3 4 4 4 4 4 4 3 3 3 2 1 1 2 2 3 3
4 5 5 5 6 6 7 7 7 8 8 8 8 7 6 6 5 5 5 5 5 5 5 5 5 5 5 5 5 4 5 4 4 3 3 2 1 1 1 1 1 1 1
4 5 5 5 5 6 6 7 7 8 8 8 8 8 8 8 7 7 6 6 6 6 6 6 6 7 7 7 6 6 6 5 4 4 3 2 2 2 2 2 2 1 2
4 5 5 5 5 5 6 6 7 7 8 8 9 8 8 8 8 8 8 8 7 7 8 8 8 8 7 7 7 6 6 5 4 4 3 3 3 3 3 3 3 3 3
5 5 5 5 5 5 5 6 7 7 7 8 8 8 8 7 7 8 8 8 8 8 8 8 8 8 8 8 7 7 7 6 5 5 4 4 4 4 3 3 3 3 4
5 6 5 5 5 5 6 6 6 6 6 7 7 8 8 8 8 8 8 8 8 7 7 7 7 6 6 6 6 5 5 4 4 4 4 4 4 3 3 3 4 5 6
5 5 5 5 5 5 6 6 5 5 6 6 6 7 7 8 8 7 8 7 7 7 7 6 5 5 4 4 4 4 4 3 3 3 3 3 3 4 4 4 6 7 8
6 6 5 5 5 5 6 6 5 5 5 5 6 6 6 6 6 6 6 6 6 6 6 5 5 4 3 3 3 3 3 3 3 3 3 3 3 4 5 6 7 8 9
6 6 5 5 6 5 5 6 5 5 5 5 5 5 5 5 5 5 5 5 4 4 4 4 4 3 3 2 2 2 2 3 3 3 3 4 5 6 7 8 9 11 12
6 6 6 6 6 5 6 6 5 5 5 4 4 4 4 4 4 4 3 3 3 3 3 2 2 2 2 2 3 3 3 3 3 4 5 6 7 8 9 10 11 13 14
6 6 5 6 6 5 5 5 5 4 4 4 3 3 3 3 2 2 3 2 2 1 1 2 2 3 3 4 4 4 3 4 5 6 7 9 9 10 11 12 14 15 16
6 6 5 5 5 5 5 5 4 4 4 3 3 3 3 2 2 2 2 2 2 2 3 3 4 4 5 5 5 5 6 7 8 9 10 11 12 13 14 15 16 17 18
6 6 5 5 6 5 5 5 4 4 3 3 3 3 3 2 2 3 2 3 3 4 4 5 6 6 7 7 8 9 9 10 11 12 13 14 15 16 17 18 19 20 21
6 6 5 6 6 5 5 4 4 4 3 3 3 3 4 4 4 5 5 5 6 6 7 8 9 9 9 10 11 12 13 14 15 16 17 17 18 19 20 21 22 23 24
7 7 7 7 6 6 5 5 4 4 4 5 5 5 6 6 6 7 7 8 9 10 11 11 12 12 13 14 15 16 17 17 18 19 20 20 21 22 23 24 25 25 26
7 7 8 8 8 7 7 6 6 7 7 7 7 8 9 9 9 10 11 12 12 13 14 14 15 16 17 17 18 19 20 21 21 22 22 23 24 25 26 27 27 28 29
Wind_Direction
296 295 294 296 297 297 297 297 297 295 294 291 289 288 287 288 287 285 284 280 278 273 271 269 266 264 263 260 258 258 258 256 251 249 251 252 256 258 261 265 265 264 265
296 298 300 299 299 299 299 300 301 300 298 294 291 289 289 288 288 286 284 280 279 277 274 270 266 265 262 260 258 257 257 255 251 248 249 251 253 255 258 262 263 262 263
295 297 301 303 302 301 301 301 303 303 303 300 296 295 292 288 287 285 283 281 282 281 275 270 266 262 260 261 259 255 253 252 250 248 248 249 251 253 257 260 261 261 260
301 303 304 305 306 305 305 306 307 307 308 305 302 299 295 290 287 286 284 284 283 281 276 271 267 263 261 259 256 254 251 251 251 248 248 247 247 248 252 256 260 261 259
305 308 309 308 312 313 314 314 312 310 310 309 308 304 300 294 290 288 283 284 282 282 280 275 270 264 258 258 255 250 247 247 247 245 244 243 244 246 250 255 259 263 262
306 309 310 311 315 316 317 318 316 315 315 314 311 307 302 297 294 296 289 286 284 280 283 282 273 264 259 260 253 243 240 241 239 239 239 237 239 243 247 252 259 264 264
307 308 311 313 314 317 319 320 321 323 325 326 326 325 319 312 303 297 296 295 288 284 282 277 265 257 255 251 235 226 226 228 225 229 229 228 234 237 240 248 256 261 264
306 307 309 314 318 320 324 328 329 331 333 338 344 344 346 344 335 324 321 318 315 309 302 288 265 240 223 203 203 212 215 215 217 223 224 227 234 234 239 246 256 263 267
311 312 313 320 325 327 331 337 341 345 348 352 358 0 357 353 351 353 359 359 355 346 336 326 302 211 208 189 198 207 203 197 196 203 213 220 225 228 232 240 255 261 265
322 324 326 331 331 335 344 350 353 358 3 5 4 4 3 2 359 358 7 14 13 10 11 20 42 163 162 163 159 163 162 161 168 177 184 193 208 224 236 252 265 265 266
331 334 333 338 343 350 356 2 3 9 14 13 12 13 14 16 23 27 32 36 38 44 45 59 80 92 99 102 114 131 140 143 145 145 150 157 169 200 248 266 271 276 279
344 347 354 4 9 9 11 13 16 21 23 26 28 29 35 40 41 41 47 53 55 59 70 85 97 103 104 103 106 114 123 125 123 122 125 126 125 98 52 37 348 330 327
354 359 2 12 18 20 22 24 30 31 32 33 38 45 52 56 56 57 63 67 67 74 83 93 96 100 99 99 102 106 106 108 109 103 94 87 73 59 54 50 45 35 19
24 25 28 28 30 28 28 30 30 34 38 40 45 52 54 56 59 63 67 69 77 83 86 90 92 96 98 97 97 100 100 100 96 85 76 75 70 63 57 56 49 31 11
41 41 43 45 43 35 35 37 38 43 44 45 50 52 53 56 61 67 68 73 78 83 87 88 90 92 95 94 92 89 90 90 83 77 80 80 77 70 61 46 33 19 2
52 52 52 48 43 37 37 36 36 42 44 45 51 53 52 56 65 70 73 77 79 81 83 86 89 92 90 88 85 83 83 84 82 77 75 69 64 58 45 27 9 355 346
56 54 48 46 43 39 38 34 34 40 46 49 51 55 57 63 64 68 75 77 78 80 82 83 84 87 88 85 83 82 74 69 63 54 50 50 47 36 21 2 351 345 338
53 46 38 35 33 32 33 33 36 40 44 49 48 48 54 59 61 66 72 75 79 82 83 82 81 78 80 82 78 68 57 45 44 49 43 28 9 358 349 340 337 335 331
48 42 36 32 27 28 29 30 34 39 41 48 52 46 43 51 60 65 69 69 73 78 73 71 68 64 63 48 32 23 18 16 13 8 358 345 335 333 332 328 325 326 327
54 46 38 32 28 27 27 27 29 34 39 43 41 36 38 46 55 61 62 72 73 73 67 59 47 37 26 9 354 341 336 333 326 323 325 323 321 319 319 321 322 321 321
46 40 35 31 28 24 18 16 18 21 23 22 18 19 25 29 34 37 38 50 37 30 11 357 349 344 340 336 332 329 323 317 313 313 315 317 317 316 318 319 320 320 320
32 26 22 21 17 11 8 8 8 9 8 5 5 8 11 16 25 25 18 1 356 345 331 324 322 323 322 319 318 316 313 311 309 307 308 310 311 312 313 315 315 316 316
16 15 10 2 357 356 355 359 359 360 1 1 360 359 359 355 349 342 331 318 315 317 318 316 312 310 309 308 307 306 305 304 303 303 304 306 308 309 311 312 312 312 313
3 3 0 353 349 347 349 350 348 349 346 343 339 332 326 321 317 312 311 310 308 308 309 306 301 299 299 299 299 299 300 301 301 301 302 303 305 308 309 310 310 311 311
355 353 350 346 342 341 340 336 329 323 321 318 314 310 309 310 306 301 299 297 295 296 298 298 299 299 298 297 297 297 298 298 299 300 301 302 302 304 306 307 307 308 308
339 336 334 333 333 332 329 324 319 314 310 307 304 303 303 302 301 299 297 295 293 294 295 296 296 297 297 297 297 297 297 297 298 298 299 300 300 301 302 304 305 305 306
Height
5794 5792 5790 5787 5785 5782 5779 5776 5773 5770 5767 5765 5763 5760 5758 5757 5755 5754 5752 5751 5750 5749 5749 5749 5749 5749 5749 5750 5751 5752 5753 5754 5756 5758 5759 5760 5761 5762 5763 5763 5764 5764 5764
5789 5787 5784 5782 5779 5776 5773 5770 5767 5764 5762 5759 5757 5754 5752 5751 5749 5748 5747 5746 5745 5743 5743 5743 5743 5743 5743 5743 5744 5745 5746 5747 5749 5751 5752 5753 5755 5756 5757 5757 5757 5757 5758
5784 5782 5779 5776 5774 5771 5768 5765 5762 5759 5756 5753 5751 5749 5747 5745 5744 5743 5742 5741 5739 5738 5738 5737 5737 5737 5737 5738 5738 5739 5740 5741 5742 5744 5746 5747 5749 5750 5752 5752 5752 5752 5753
5779 5777 5774 5772 5769 5766 5763 5761 5758 5755 5752 5749 5746 5744 5742 5741 5739 5738 5737 5736 5735 5734 5733 5733 5732 5732 5732 5732 5733 5733 5734 5736 5737 5739 5741 5742 5744 5746 5747 5748 5748 5749 5749
5775 5773 5770 5768 5765 5762 5759 5756 5753 5750 5747 5745 5742 5740 5738 5737 5736 5734 5733 5732 5731 5730 5729 5729 5728 5728 5728 5728 5728 5729 5730 5731 5733 5735 5737 5738 5740 5742 5743 5744 5745 5745 5745
5772 5769 5767 5764 5761 5759 5756 5753 5750 5747 5744 5741 5739 5737 5735 5733 5732 5731 5730 5729 5728 5727 5727 5726 5726 5726 5726 5726 5725 5726 5727 5728 5730 5732 5733 5735 5737 5738 5739 5740 5741 5742 5742
5768 5766 5764 5761 5759 5756 5753 5750 5748 5744 5742 5739 5736 5734 5732 5731 5730 5729 5728 5727 5726 5725 5725 5724 5724 5723 5724 5724 5724 5724 5725 5726 5728 5729 5731 5732 5734 5735 5736 5737 5738 5738 5738
5765 5763 5761 5759 5756 5754 5751 5748 5745 5743 5740 5738 5735 5733 5732 5730 5729 5728 5726 5726 5725 5724 5723 5723 5723 5723 5723 5723 5723 5723 5724 5725 5726 5727 5729 5730 5731 5732 5733 5735 5735 5735 5735
5762 5760 5758 5756 5754 5752 5750 5747 5744 5742 5739 5737 5735 5733 5731 5730 5728 5727 5726 5725 5724 5723 5723 5722 5722 5722 5722 5722 5722 5723 5724 5724 5725 5726 5727 5728 5729 5730 5731 5732 5733 5733 5733
5759 5758 5756 5755 5753 5751 5749 5746 5744 5741 5739 5737 5735 5733 5731 5730 5728 5727 5726 5725 5724 5723 5722 5722 5721 5721 5722 5722 5722 5723 5724 5724 5725 5726 5727 5727 5728 5729 5730 5730 5731 5731 5731
5758 5756 5755 5753 5752 5750 5748 5746 5744 5741 5739 5737 5735 5733 5731 5730 5728 5727 5726 5725 5724 5723 5723 5722 5722 5722 5722 5722 5723 5724 5724 5725 5726 5726 5727 5728 5728 5729 5729 5729 5729 5729 5729
5757 5755 5753 5752 5751 5749 5748 5746 5744 5742 5740 5737 5735 5733 5732 5730 5729 5728 5727 5726 5725 5724 5724 5724 5723 5724 5724 5724 5725 5725 5726 5727 5727 5728 5728 5728 5729 5729 5728 5728 5728 5728 5728
5756 5755 5753 5752 5751 5749 5748 5746 5744 5742 5740 5738 5736 5734 5733 5731 5730 5729 5728 5727 5726 5726 5725 5725 5725 5726 5726 5726 5727 5727 5728 5728 5728 5729 5729 5729 5729 5729 5728 5728 5727 5727 5727
5756 5755 5753 5752 5751 5750 5748 5747 5745 5743 5742 5740 5738 5736 5735 5733 5732 5731 5730 5730 5729 5728 5728 5728 5728 5728 5729 5729 5729 5730 5730 5730 5730 5730 5730 5730 5729 5729 5728 5728 5728 5727 5727
5756 5755 5754 5753 5752 5750 5749 5747 5746 5744 5743 5741 5740 5738 5737 5736 5735 5734 5733 5732 5732 5731 5731 5731 5731 5731 5732 5732 5732 5732 5732 5732 5732 5731 5731 5730 5730 5730 5729 5729 5728 5727 5726
5757 5756 5755 5754 5753 5751 5750 5749 5747 5746 5744 5743 5742 5740 5739 5738 5737 5736 5735 5735 5734 5734 5734 5734 5734 5734 5734 5734 5734 5734 5734 5733 5733 5733 5732 5731 5731 5730 5730 5729 5728 5727 5726
5758 5757 5756 5755 5754 5753 5751 5750 5748 5747 5746 5744 5743 5742 5741 5740 5739 5739 5738 5738 5737 5737 5737 5737 5736 5736 5736 5736 5736 5736 5735 5735 5734 5733 5733 5732 5732 5731 5730 5729 5727 5726 5724
5759 5758 5757 5756 5755 5754 5752 5751 5749 5748 5747 5746 5745 5744 5743 5742 5741 5741 5741 5740 5740 5739 5739 5739 5739 5738 5738 5738 5737 5737 5736 5736 5735 5734 5733 5733 5732 5731 5729 5728 5726 5725 5723
5760 5760 5758 5757 5756 5754 5753 5752 5750 5749 5748 5747 5746 5745 5745 5744 5743 5743 5742 5742 5741 5741 5741 5741 5740 5740 5739 5739 5738 5738 5737 5736 5735 5735 5734 5733 5732 5730 5729 5727 5725 5723 5721
5762 5761 5760 5758 5757 5756 5754 5753 5752 5750 5749 5748 5748 5747 5746 5745 5745 5744 5744 5743 5743 5742 5742 5742 5741 5741 5740 5739 5739 5738 5737 5736 5735 5734 5733 5732 5731 5729 5727 5725 5723 5721 5718
5763 5762 5761 5759 5758 5757 5755 5754 5753 5751 5751 5750 5749 5748 5747 5746 5746 5745 5745 5744 5744 5743 5743 5743 5742 5741 5740 5739 5738 5737 5737 5736 5735 5733 5732 5730 5729 5727 5725 5722 5720 5717 5715
5764 5763 5762 5760 5759 5758 5756 5755 5754 5753 5751 5750 5749 5749 5748 5747 5746 5746 5745 5745 5744 5744 5743 5743 5742 5741 5740 5739 5738 5737 5736 5734 5733 5732 5730 5728 5726 5724 5722 5719 5717 5714 5711
5765 5763 5762 5761 5759 5758 5757 5755 5754 5753 5752 5751 5750 5749 5748 5747 5746 5746 5745 5744 5744 5743 5742 5742 5741 5740 5738 5737 5736 5735 5734 5732 5730 5729 5727 5725 5723 5720 5718 5715 5712 5709 5706
5766 5764 5763 5761 5760 5758 5757 5755 5754 5753 5752 5751 5750 5749 5749 5748 5747 5746 5745 5744 5743 5742 5741 5740 5739 5738 5736 5735 5734 5732 5731 5729 5727 5725 5723 5720 5718 5715 5713 5710 5707 5704 5700
5766 5765 5763 5761 5760 5758 5757 5755 5754 5753 5752 5751 5750 5749 5748 5747 5746 5744 5743 5742 5741 5740 5739 5738 5736 5735 5733 5732 5730 5728 5726 5724 5722 5720 5717 5715 5712 5710 5707 5704 5700 5697 5693
5766 5764 5763 5762 5760 5758 5757 5755 5754 5752 5751 5750 5749 5747 5746 5745 5744 5742 5741 5740 5739 5737 5736 5734 5733 5731 5729 5727 5725 5723 5721 5719 5716 5714 5711 5708 5706 5703 5700 5696 5693 5689 5686